Location: ?????
(31.8092°N, 35.2590°E)
Time: 20:38:55
(UTC+00:00)

ADEOS II - Pass Details

Date: 20 June 2021
Orbit: 800 x 800 km, 98.6° (Epoch: 23 July)

Event Time Altitude Azimuth Distance (km) Brightness Sun altitude
Rises 23:21:31 0° 19° (NNE) 3,311 6.5 -29.7°
Reaches altitude 10° 23:23:55 10° 24° (NNE) 2,377 5.5 -29.5°
Enters shadow 23:28:57 53° 97° (E) 981 2.5 -29.0°
